This is the latest recevied weather packets stored in our database for station/object W4DEX-2. If no packets are shown the sender has not sent any weather packets the latest 10 day(s).
| Time | Temp. | Humidity | Pressure | Rain* | Wind** | Luminosity | Snow |
|---|---|---|---|---|---|---|---|
| 1777591803 | 21.11° C | 43% | 1009.2 hPa | 0 mm | 4.47 m/s, 179° | - | - |
| 1777591502 | 21.11° C | 40% | 1009.1 hPa | 0 mm | 4.02 m/s, 178° | - | - |
| 1777590602 | 21.67° C | 40% | 1009 hPa | 0 mm | 4.02 m/s, 178° | - | - |
| 1777590302 | 21.67° C | 40% | 1008.8 hPa | 0 mm | 4.02 m/s, 173° | - | - |
| 1777590002 | 21.11° C | 41% | 1008.9 hPa | 0 mm | 4.02 m/s, 180° | - | - |
| 1777589102 | 21.67° C | 43% | 1008.8 hPa | 0 mm | 3.58 m/s, 176° | - | - |
| 1777588802 | 22.22° C | 39% | 1008.6 hPa | 0 mm | 4.47 m/s, 177° | - | - |
| 1777588202 | 22.78° C | 41% | 1008.6 hPa | 0 mm | 4.47 m/s, 178° | - | - |
| 1777587902 | 22.78° C | 41% | 1008.5 hPa | 0 mm | 4.47 m/s, 176° | - | - |
| 1777587303 | 22.22° C | 41% | 1008.4 hPa | 0 mm | 4.47 m/s, 178° | - | - |
| 1777587002 | 22.22° C | 40% | 1008.6 hPa | 0 mm | 4.02 m/s, 179° | - | - |
| 1777586703 | 22.22° C | 41% | 1008.4 hPa | 0 mm | 4.02 m/s, 180° | - | - |
| 1777586102 | 22.78° C | 40% | 1008.4 hPa | 0 mm | 4.47 m/s, 180° | - | - |
| 1777585803 | 22.78° C | 40% | 1008.5 hPa | 0 mm | 4.47 m/s, 180° | - | - |
| 1777585503 | 22.22° C | 44% | 1008.6 hPa | 0 mm | 4.47 m/s, 180° | - | - |
| 1777585202 | 22.22° C | 42% | 1008.5 hPa | 0 mm | 3.58 m/s, 180° | - | - |
| 1777584603 | 22.22° C | 42% | 1008.6 hPa | 0 mm | 4.47 m/s, 178° | - | - |
| 1777584303 | 22.22° C | 47% | 1008.3 hPa | 0 mm | 4.92 m/s, 185° | - | - |
| 1777583703 | 23.33° C | 40% | 1008.5 hPa | 0 mm | 4.02 m/s, 179° | - | - |
| 1777583102 | 22.78° C | 39% | 1008.5 hPa | 0 mm | 4.02 m/s, 182° | - | - |
| 1777582802 | 23.33° C | 38% | 1008.4 hPa | 0 mm | 4.02 m/s, 180° | - | - |
| 1777582503 | 23.33° C | 37% | 1008.4 hPa | 0 mm | 3.58 m/s, 175° | - | - |
| 1777582202 | 23.89° C | 35% | 1008.3 hPa | 0 mm | 4.47 m/s, 180° | - | - |
| 1777580702 | 22.78° C | 39% | 1008.4 hPa | 0 mm | 4.47 m/s, 180° | - | - |
| 1777580402 | 23.33° C | 45% | 1008.4 hPa | 0 mm | 4.92 m/s, 182° | - | - |
* Rain latest hour (hover to see other rain measurements)
** Current wind speed in m/s (hover to see current wind gust speed)